,,Stat5,,Stat1,,Stat2,,Stat3,,Stat4,,Wind1,,Wind1,
time,status,PA1M_AVG,status,PR1M_SUM,status,RH1M_AVG,status,SR1M_AVG,status,TA1M_AVG,status,W1dAve1m,status,W1sAve1m,
2001-06-02, 00:00:00,VALID,917.828,VALID,0,VALID,99.47,VALID,0.0169808,VALID,19.4195,VALID,335,VALID,1.05428,
2001-06-02, 00:01:00,VALID,917.828,VALID,0,VALID,99.4751,VALID,0.0339617,VALID,19.4195,VALID,353,VALID,1.4734,
2001-06-02, 00:02:00,VALID,917.783,VALID,0,VALID,99.4713,VALID,0.0169808,VALID,19.4297,VALID,11,VALID,1.86827,
2001-06-02, 00:03:00,VALID,917.769,VALID,0,VALID,99.4725,VALID,0.0339617,VALID,19.4324,VALID,17,VALID,1.66612,
2001-06-02, 00:04:00,VALID,917.755,VALID,0,VALID,99.4687,VALID,0.0169808,VALID,19.413,VALID,11,VALID,1.5204,
2001-06-02, 00:05:00,VALID,917.732,VALID,0,VALID,99.4675,VALID,0.0169808,VALID,19.4001,VALID,346,VALID,1.05942,
2001-06-02, 00:06:00,VALID,917.73,VALID,0,VALID,99.4789,VALID,0.0849042,VALID,19.3862,VALID,312,VALID,0.498311,
2001-06-02, 00:07:00,VALID,917.717,VALID,0,VALID,99.47,VALID,0.0339617,VALID,19.4026,VALID,312,VALID,0.122545,
2001-06-02, 00:08:00,VALID,917.709,VALID,0,VALID,99.4725,VALID,0.0509425,VALID,19.4391,VALID,324,VALID,0.14403,
2001-06-02, 00:09:00,VALID,917.706,VALID,0,VALID,99.4662,VALID,0.0169808,VALID,19.4324,VALID,336,VALID,0.655303,
2001-06-02, 00:10:00,VALID,917.7,VALID,0,VALID,99.4713,VALID,-0.0169808,VALID,19.4234,VALID,1,VALID,0.45625,
2001-06-02, 00:11:00,VALID,917.685,VALID,0,VALID,99.4662,VALID,-0.0509425,VALID,19.4207,VALID,2,VALID,0.841427,
2001-06-02, 00:12:00,VALID,917.679,VALID,0,VALID,99.4713,VALID,-0.0509425,VALID,19.4465,VALID,19,VALID,0.705448,
2001-06-02, 00:13:00,VALID,917.669,VALID,0,VALID,99.4675,VALID,-0.0509425,VALID,19.4659,VALID,20,VALID,0.712788,
2001-06-02, 00:14:00,VALID,917.627,VALID,0,VALID,99.47,VALID,-0.0339617,VALID,19.4597,VALID,27,VALID,1.02431,
2001-06-02, 00:15:00,VALID,917.612,VALID,0,VALID,99.4662,VALID,-0.0169808,VALID,19.4595,VALID,24,VALID,0.887747,
2001-06-02, 00:16:00,VALID,917.593,VALID,0,VALID,99.4636,VALID,-0.0339617,VALID,19.4692,VALID,35,VALID,0.958193,
2001-06-02, 00:17:00,VALID,917.575,VALID,0,VALID,99.4598,VALID,-0.0509425,VALID,19.4692,VALID,16,VALID,0.619026,
2001-06-02, 00:18:00,VALID,917.562,VALID,0,VALID,99.4636,VALID,-0.0339617,VALID,19.489,VALID,13,VALID,0.588199,
2001-06-02, 00:19:00,VALID,917.553,VALID,0,VALID,99.4522,VALID,-0.0169808,VALID,19.4786,VALID,11,VALID,0.685811,
2001-06-02, 00:20:00,VALID,917.537,VALID,0,VALID,99.4535,VALID,-0.0509425,VALID,19.4853,VALID,19,VALID,0.723684,
2001-06-02, 00:21:00,VALID,917.524,VALID,0,VALID,99.4535,VALID,-0.0509425,VALID,19.495,VALID,14,VALID,0.792863,
2001-06-02, 00:22:00,VALID,917.515,VALID,0,VALID,99.4611,VALID,-0.0509425,VALID,19.498,VALID,15,VALID,0.606473,
2001-06-02, 00:23:00,VALID,917.5,VALID,0,VALID,99.456,VALID,-0.0169808,VALID,19.498,VALID,1,VALID,0.462941,
2001-06-02, 00:24:00,VALID,917.505,VALID,0,VALID,99.4598,VALID,-0.0339617,VALID,19.4793,VALID,341,VALID,0.483902,
2001-06-02, 00:25:00,VALID,917.515,VALID,0,VALID,99.4535,VALID,-0.0169808,VALID,19.4629,VALID,323,VALID,0.35692,
2001-06-02, 00:26:00,VALID,917.516,VALID,0,VALID,99.4713,VALID,-0.0679233,VALID,19.453,VALID,315,VALID,0.2519,
2001-06-02, 00:27:00,VALID,917.514,VALID,0,VALID,99.4636,VALID,-0.0509425,VALID,19.462,VALID,315,VALID,0.00760135,
2001-06-02, 00:28:00,VALID,917.519,VALID,0,VALID,99.4662,VALID,-0.0339617,VALID,19.4719,VALID,315,VALID,0,
2001-06-02, 00:29:00,VALID,917.53,VALID,0,VALID,99.4738,VALID,0,VALID,19.488,VALID,315,VALID,0.0768229,
2001-06-02, 00:30:00,VALID,917.532,VALID,0,VALID,99.4675,VALID,-0.0339617,VALID,19.4816,VALID,314,VALID,0.108758,
2001-06-02, 00:31:00,VALID,917.541,VALID,0,VALID,99.4776,VALID,-0.0169808,VALID,19.5107,VALID,352,VALID,0.143581,
2001-06-02, 00:32:00,VALID,917.545,VALID,0,VALID,99.4751,VALID,-0.0339617,VALID,19.527,VALID,360,VALID,0.315487,
2001-06-02, 00:33:00,VALID,917.56,VALID,0,VALID,99.4662,VALID,-0.0169808,VALID,19.5012,VALID,350,VALID,0.269531,
2001-06-02, 00:34:00,VALID,917.572,VALID,0,VALID,99.4738,VALID,-0.0169808,VALID,19.4977,VALID,358,VALID,0.32348,
2001-06-02, 00:35:00,VALID,917.583,VALID,0,VALID,99.4725,VALID,-0.0339617,VALID,19.5166,VALID,348,VALID,0.13528,
2001-06-02, 00:36:00,VALID,917.585,VALID,0,VALID,99.47,VALID,-0.0169808,VALID,19.501,VALID,325,VALID,0.293497,
2001-06-02, 00:37:00,VALID,917.576,VALID,0,VALID,99.4662,VALID,-0.0509425,VALID,19.4816,VALID,332,VALID,0.186161,
2001-06-02, 00:38:00,VALID,917.577,VALID,0,VALID,99.4713,VALID,-0.0339617,VALID,19.5017,VALID,345,VALID,0.277244,
2001-06-02, 00:39:00,VALID,917.576,VALID,0,VALID,99.4713,VALID,-0.0169808,VALID,19.5171,VALID,5,VALID,0.488163,
2001-06-02, 00:40:00,VALID,917.578,VALID,0,VALID,99.4725,VALID,-0.0169808,VALID,19.5333,VALID,18,VALID,0.664286,
2001-06-02, 00:41:00,VALID,917.574,VALID,0,VALID,99.47,VALID,-0.0339617,VALID,19.5397,VALID,357,VALID,0.587204,
2001-06-02, 00:42:00,VALID,917.583,VALID,0,VALID,99.4649,VALID,-0.0169808,VALID,19.533,VALID,6,VALID,0.686233,
2001-06-02, 00:43:00,VALID,917.584,VALID,0,VALID,99.4662,VALID,-0.0849042,VALID,19.5333,VALID,7,VALID,0.680304,
2001-06-02, 00:44:00,VALID,917.592,VALID,0,VALID,99.4751,VALID,-0.0509425,VALID,19.5526,VALID,22,VALID,0.728299,
2001-06-02, 00:45:00,VALID,917.595,VALID,0,VALID,99.4789,VALID,-0.0509425,VALID,19.5593,VALID,18,VALID,0.329359,
2001-06-02, 00:46:00,VALID,917.598,VALID,0,VALID,99.4713,VALID,-0.0509425,VALID,19.5593,VALID,350,VALID,0.718961,
2001-06-02, 00:47:00,VALID,917.613,VALID,0,VALID,99.4675,VALID,-0.0339617,VALID,19.5437,VALID,337,VALID,0.522748,
2001-06-02, 00:48:00,VALID,917.61,VALID,0,VALID,99.4776,VALID,-0.0509425,VALID,19.5206,VALID,349,VALID,0.20847,
2001-06-02, 00:49:00,VALID,917.602,VALID,0,VALID,99.4751,VALID,-0.0849042,VALID,19.5561,VALID,349,VALID,0.131123,
2001-06-02, 00:50:00,VALID,917.591,VALID,0,VALID,99.4764,VALID,-0.0679233,VALID,19.5824,VALID,360,VALID,0.0215872,
2001-06-02, 00:51:00,VALID,917.584,VALID,0,VALID,99.4611,VALID,-0.0339617,VALID,19.6115,VALID,9,VALID,0,
2001-06-02, 00:52:00,VALID,917.572,VALID,0,VALID,99.4738,VALID,-0.0169808,VALID,19.617,VALID,9,VALID,0,
2001-06-02, 00:53:00,VALID,917.542,VALID,0,VALID,99.4624,VALID,-0.0339617,VALID,19.6364,VALID,17,VALID,0.107372,
2001-06-02, 00:54:00,VALID,917.524,VALID,0,VALID,99.4776,VALID,-0.0169808,VALID,19.656,VALID,28,VALID,0.278172,
2001-06-02, 00:55:00,VALID,917.516,VALID,0,VALID,99.4789,VALID,0,VALID,19.662,VALID,27,VALID,0.340179,
2001-06-02, 00:56:00,VALID,917.511,VALID,0,VALID,99.4713,VALID,-0.0169808,VALID,19.688,VALID,26,VALID,0.243666,
2001-06-02, 00:57:00,VALID,917.519,VALID,0,VALID,99.4547,VALID,-0.0169808,VALID,19.6948,VALID,26,VALID,0.165541,
2001-06-02, 00:58:00,VALID,917.532,VALID,0,VALID,99.4611,VALID,-0.0339617,VALID,19.7047,VALID,26,VALID,0.178454,
2001-06-02, 00:59:00,VALID,917.532,VALID,0,VALID,99.4675,VALID,-0.0169808,VALID,19.7077,VALID,25,VALID,0.000651042,
2001-06-02, 01:00:00,VALID,917.531,VALID,0,VALID,99.4636,VALID,-0.0339617,VALID,19.704,VALID,25,VALID,0.134046,
2001-06-02, 01:01:00,VALID,917.517,VALID,0,VALID,99.456,VALID,-0.0169808,VALID,19.7174,VALID,25,VALID,0.173142,
2001-06-02, 01:02:00,VALID,917.495,VALID,0,VALID,99.4713,VALID,0,VALID,19.7141,VALID,25,VALID,0,
2001-06-02, 01:03:00,VALID,917.477,VALID,0,VALID,99.47,VALID,0,VALID,19.7263,VALID,25,VALID,0,
2001-06-02, 01:04:00,VALID,917.46,VALID,0,VALID,99.4738,VALID,-0.0169808,VALID,19.7196,VALID,25,VALID,0,
2001-06-02, 01:05:00,VALID,917.429,VALID,0,VALID,99.4662,VALID,0,VALID,19.7464,VALID,25,VALID,0,
2001-06-02, 01:06:00,VALID,917.401,VALID,0,VALID,99.47,VALID,0,VALID,19.743,VALID,24,VALID,0.297931,
2001-06-02, 01:07:00,VALID,917.367,VALID,0,VALID,99.4649,VALID,0,VALID,19.7522,VALID,25,VALID,0.865625,
2001-06-02, 01:08:00,VALID,917.337,VALID,0,VALID,99.4585,VALID,0,VALID,19.7623,VALID,24,VALID,0.909054,
2001-06-02, 01:09:00,VALID,917.313,VALID,0,VALID,99.4636,VALID,-0.0169808,VALID,19.7524,VALID,24,VALID,1.1108,
2001-06-02, 01:10:00,VALID,917.287,VALID,0,VALID,99.4636,VALID,0,VALID,19.7591,VALID,27,VALID,1.1904,
2001-06-02, 01:11:00,VALID,917.259,VALID,0.2,VALID,99.4636,VALID,0,VALID,19.743,VALID,22,VALID,1.46073,
2001-06-02, 01:12:00,VALID,917.277,VALID,0,VALID,99.4649,VALID,0,VALID,19.7494,VALID,24,VALID,1.21959,
2001-06-02, 01:13:00,VALID,917.255,VALID,0,VALID,99.4573,VALID,-0.0169808,VALID,19.7492,VALID,28,VALID,1.13363,
2001-06-02, 01:14:00,VALID,917.242,VALID,0,VALID,99.4649,VALID,-0.0339617,VALID,19.7427,VALID,23,VALID,1.35742,
2001-06-02, 01:15:00,VALID,917.229,VALID,0,VALID,99.4585,VALID,-0.0169808,VALID,19.7298,VALID,17,VALID,1.66303,
2001-06-02, 01:16:00,VALID,917.203,VALID,0,VALID,99.4611,VALID,-0.0169808,VALID,19.7007,VALID,18,VALID,1.64717,
2001-06-02, 01:17:00,VALID,917.203,VALID,0,VALID,99.4649,VALID,0,VALID,19.6816,VALID,357,VALID,1.76425,
2001-06-02, 01:18:00,VALID,917.193,VALID,0,VALID,99.4624,VALID,-0.0169808,VALID,19.6622,VALID,17,VALID,1.87274,
2001-06-02, 01:19:00,VALID,917.186,VALID,0,VALID,99.4687,VALID,-0.0169808,VALID,19.659,VALID,17,VALID,1.48754,
2001-06-02, 01:20:00,VALID,917.193,VALID,0,VALID,99.4649,VALID,-0.0509425,VALID,19.6456,VALID,16,VALID,1.68914,
2001-06-02, 01:21:00,VALID,917.198,VALID,0,VALID,99.4675,VALID,-0.0339617,VALID,19.6423,VALID,10,VALID,1.87521,
2001-06-02, 01:22:00,VALID,917.196,VALID,0,VALID,99.4649,VALID,-0.0339617,VALID,19.6366,VALID,20,VALID,1.96116,
2001-06-02, 01:23:00,VALID,917.191,VALID,0,VALID,99.4738,VALID,-0.0169808,VALID,19.6431,VALID,17,VALID,1.46394,
2001-06-02, 01:24:00,VALID,917.191,VALID,0,VALID,99.4598,VALID,-0.0339617,VALID,19.6394,VALID,2,VALID,1.42992,
2001-06-02, 01:25:00,VALID,917.196,VALID,0,VALID,99.4611,VALID,-0.0169808,VALID,19.6361,VALID,19,VALID,1.87478,
2001-06-02, 01:26:00,VALID,917.202,VALID,0,VALID,99.4713,VALID,-0.0339617,VALID,19.649,VALID,25,VALID,1.54624,
2001-06-02, 01:27:00,VALID,917.209,VALID,0,VALID,99.4611,VALID,-0.0169808,VALID,19.6326,VALID,20,VALID,1.42631,
2001-06-02, 01:28:00,VALID,917.205,VALID,0,VALID,99.4649,VALID,0,VALID,19.6195,VALID,353,VALID,1.27159,
2001-06-02, 01:29:00,VALID,917.211,VALID,0,VALID,99.4636,VALID,-0.0509425,VALID,19.6071,VALID,3,VALID,0.781467,
2001-06-02, 01:30:00,VALID,917.206,VALID,0,VALID,99.47,VALID,-0.0509425,VALID,19.5812,VALID,356,VALID,0.710732,
2001-06-02, 01:31:00,VALID,917.189,VALID,0,VALID,99.4751,VALID,-0.0169808,VALID,19.5909,VALID,8,VALID,1.32052,
2001-06-02, 01:32:00,VALID,917.197,VALID,0,VALID,99.4713,VALID,0,VALID,19.6071,VALID,6,VALID,0.696461,
2001-06-02, 01:33:00,VALID,917.195,VALID,0,VALID,99.4738,VALID,-0.0509425,VALID,19.6075,VALID,18,VALID,1.28125,
2001-06-02, 01:34:00,VALID,917.209,VALID,0,VALID,99.4662,VALID,-0.0169808,VALID,19.6073,VALID,25,VALID,1.39949,
2001-06-02, 01:35:00,VALID,917.201,VALID,0,VALID,99.4789,VALID,0,VALID,19.6299,VALID,11,VALID,1.19963,
2001-06-02, 01:36:00,VALID,917.218,VALID,0,VALID,99.4725,VALID,-0.0169808,VALID,19.6366,VALID,13,VALID,1.69046,
2001-06-02, 01:37:00,VALID,917.211,VALID,0,VALID,99.4636,VALID,0,VALID,19.6202,VALID,9,VALID,1.78393,
2001-06-02, 01:38:00,VALID,917.226,VALID,0,VALID,99.4662,VALID,-0.0339617,VALID,19.6239,VALID,18,VALID,1.60917,
2001-06-02, 01:39:00,VALID,917.226,VALID,0,VALID,99.4713,VALID,-0.0509425,VALID,19.6269,VALID,16,VALID,1.9491,
2001-06-02, 01:40:00,VALID,917.227,VALID,0,VALID,99.4827,VALID,0,VALID,19.6398,VALID,358,VALID,1.65603,
2001-06-02, 01:41:00,VALID,917.235,VALID,0,VALID,99.4764,VALID,-0.0169808,VALID,19.6235,VALID,15,VALID,2.17019,
2001-06-02, 01:42:00,VALID,917.209,VALID,0,VALID,99.4764,VALID,-0.0169808,VALID,19.6242,VALID,17,VALID,1.5492,
2001-06-02, 01:43:00,VALID,917.207,VALID,0,VALID,99.4789,VALID,-0.0169808,VALID,19.6165,VALID,14,VALID,1.65008,
2001-06-02, 01:44:00,VALID,917.205,VALID,0,VALID,99.4789,VALID,0,VALID,19.6197,VALID,9,VALID,1.32856,
2001-06-02, 01:45:00,VALID,917.188,VALID,0,VALID,99.4878,VALID,-0.0339617,VALID,19.6133,VALID,1,VALID,1.01398,
2001-06-02, 01:46:00,VALID,917.17,VALID,0,VALID,99.484,VALID,-0.0339617,VALID,19.614,VALID,7,VALID,1.30363,
2001-06-02, 01:47:00,VALID,917.137,VALID,0,VALID,99.4802,VALID,-0.0169808,VALID,19.5941,VALID,11,VALID,1.51011,
2001-06-02, 01:48:00,VALID,917.129,VALID,0,VALID,99.4827,VALID,-0.0169808,VALID,19.6108,VALID,6,VALID,1.294,
2001-06-02, 01:49:00,VALID,917.122,VALID,0,VALID,99.4891,VALID,-0.0339617,VALID,19.6237,VALID,12,VALID,1.23036,
2001-06-02, 01:50:00,VALID,917.104,VALID,0,VALID,99.4916,VALID,-0.0169808,VALID,19.6262,VALID,25,VALID,1.82134,
2001-06-02, 01:51:00,VALID,917.091,VALID,0,VALID,99.4903,VALID,0,VALID,19.6232,VALID,20,VALID,1.58995,
2001-06-02, 01:52:00,VALID,917.106,VALID,0,VALID,99.4827,VALID,-0.0169808,VALID,19.6329,VALID,13,VALID,1.08549,
2001-06-02, 01:53:00,VALID,917.12,VALID,0,VALID,99.4878,VALID,0,VALID,19.6133,VALID,359,VALID,1.07372,
2001-06-02, 01:54:00,VALID,917.137,VALID,0,VALID,99.4789,VALID,-0.0339617,VALID,19.6105,VALID,10,VALID,1.25426,
2001-06-02, 01:55:00,VALID,917.136,VALID,0,VALID,99.4814,VALID,0,VALID,19.6103,VALID,15,VALID,1.52455,
2001-06-02, 01:56:00,VALID,917.134,VALID,0,VALID,99.4789,VALID,0,VALID,19.62,VALID,5,VALID,1.89506,
2001-06-02, 01:57:00,VALID,917.128,VALID,0,VALID,99.4878,VALID,0,VALID,19.6133,VALID,11,VALID,1.44067,
2001-06-02, 01:58:00,VALID,917.12,VALID,0,VALID,99.4814,VALID,-0.0169808,VALID,19.62,VALID,13,VALID,0.956209,
2001-06-02, 01:59:00,VALID,917.094,VALID,0,VALID,99.4853,VALID,-0.0169808,VALID,19.6167,VALID,3,VALID,1.12934,
2001-06-02, 02:00:00,VALID,917.081,VALID,0,VALID,99.4802,VALID,-0.0169808,VALID,19.6036,VALID,356,VALID,1.02262,
2001-06-02, 02:01:00,VALID,917.05,VALID,0,VALID,99.4725,VALID,0.0169808,VALID,19.6008,VALID,358,VALID,1.31292,
2001-06-02, 02:02:00,VALID,917.028,VALID,0,VALID,99.4776,VALID,0,VALID,19.584,VALID,9,VALID,1.21392,
2001-06-02, 02:03:00,VALID,917.01,VALID,0,VALID,99.4878,VALID,0,VALID,19.581,VALID,345,VALID,1.24527,
2001-06-02, 02:04:00,VALID,917.003,VALID,0,VALID,99.4853,VALID,0,VALID,19.5877,VALID,4,VALID,1.08678,
2001-06-02, 02:05:00,VALID,917.016,VALID,0,VALID,99.4853,VALID,0,VALID,19.6075,VALID,12,VALID,0.951069,
2001-06-02, 02:06:00,VALID,917.014,VALID,0,VALID,99.4954,VALID,0,VALID,19.6133,VALID,356,VALID,0.871199,
2001-06-02, 02:07:00,VALID,917.012,VALID,0,VALID,99.4814,VALID,-0.0339617,VALID,19.6205,VALID,358,VALID,0.627902,
2001-06-02, 02:08:00,VALID,917.004,VALID,0,VALID,99.4929,VALID,-0.0169808,VALID,19.6304,VALID,14,VALID,1.20713,
2001-06-02, 02:09:00,VALID,916.989,VALID,0,VALID,99.4827,VALID,0,VALID,19.6237,VALID,9,VALID,1.15459,
2001-06-02, 02:10:00,VALID,916.993,VALID,0,VALID,99.4853,VALID,-0.0169808,VALID,19.6043,VALID,6,VALID,1.35424,
2001-06-02, 02:11:00,VALID,917.007,VALID,0,VALID,99.4891,VALID,-0.0169808,VALID,19.584,VALID,10,VALID,1.27977,
2001-06-02, 02:12:00,VALID,917.026,VALID,0,VALID,99.5005,VALID,-0.0169808,VALID,19.6011,VALID,17,VALID,1.31778,
2001-06-02, 02:13:00,VALID,917.041,VALID,0,VALID,99.5069,VALID,0,VALID,19.6078,VALID,20,VALID,0.794613,
2001-06-02, 02:14:00,VALID,917.053,VALID,0,VALID,99.4992,VALID,-0.0509425,VALID,19.6001,VALID,6,VALID,0.831814,
2001-06-02, 02:15:00,VALID,917.062,VALID,0,VALID,99.4942,VALID,-0.0509425,VALID,19.6135,VALID,357,VALID,0.614515,
2001-06-02, 02:16:00,VALID,917.075,VALID,0,VALID,99.5005,VALID,-0.0169808,VALID,19.6066,VALID,352,VALID,1.10747,
2001-06-02, 02:17:00,VALID,917.075,VALID,0,VALID,99.4954,VALID,0,VALID,19.6165,VALID,18,VALID,0.641314,
2001-06-02, 02:18:00,VALID,917.071,VALID,0,VALID,99.4916,VALID,-0.0169808,VALID,19.6071,VALID,317,VALID,0.517681,
2001-06-02, 02:19:00,VALID,917.066,VALID,0,VALID,99.4954,VALID,0,VALID,19.62,VALID,319,VALID,0.29223,
2001-06-02, 02:20:00,VALID,917.045,VALID,0,VALID,99.5056,VALID,0,VALID,19.6068,VALID,306,VALID,0.572163,
2001-06-02, 02:21:00,VALID,917.03,VALID,0,VALID,99.4942,VALID,0,VALID,19.6068,VALID,336,VALID,0.197213,
2001-06-02, 02:22:00,VALID,917.022,VALID,0,VALID,99.4954,VALID,0,VALID,19.6324,VALID,13,VALID,0.509152,
2001-06-02, 02:23:00,VALID,917.038,VALID,0,VALID,99.5005,VALID,0.0169808,VALID,19.6555,VALID,345,VALID,0.664463,
2001-06-02, 02:24:00,VALID,917.037,VALID,0,VALID,99.4967,VALID,0,VALID,19.6558,VALID,341,VALID,0.954072,
2001-06-02, 02:25:00,VALID,917.039,VALID,0,VALID,99.5043,VALID,0,VALID,19.6361,VALID,353,VALID,0.551786,
2001-06-02, 02:26:00,VALID,917.035,VALID,0,VALID,99.4967,VALID,0,VALID,19.6463,VALID,354,VALID,0.443412,
2001-06-02, 02:27:00,VALID,917.04,VALID,0,VALID,99.5018,VALID,0,VALID,19.6423,VALID,291,VALID,0.464949,
2001-06-02, 02:28:00,VALID,917.032,VALID,0,VALID,99.4878,VALID,0,VALID,19.652,VALID,317,VALID,0.392064,
2001-06-02, 02:29:00,VALID,917.01,VALID,0,VALID,99.4967,VALID,0,VALID,19.6582,VALID,348,VALID,0.476128,
2001-06-02, 02:30:00,VALID,917.002,VALID,0,VALID,99.5043,VALID,0,VALID,19.6816,VALID,5,VALID,0.577303,
2001-06-02, 02:31:00,VALID,916.957,VALID,0,VALID,99.4967,VALID,0,VALID,19.649,VALID,357,VALID,0.954392,
2001-06-02, 02:32:00,VALID,916.925,VALID,0,VALID,99.4954,VALID,0,VALID,19.6525,VALID,321,VALID,0.403722,
2001-06-02, 02:33:00,VALID,916.899,VALID,0,VALID,99.4916,VALID,0,VALID,19.6488,VALID,279,VALID,0.334704,
2001-06-02, 02:34:00,VALID,916.879,VALID,0,VALID,99.4954,VALID,0.0169808,VALID,19.659,VALID,303,VALID,0.228252,
2001-06-02, 02:35:00,VALID,916.84,VALID,0,VALID,99.4853,VALID,0,VALID,19.6558,VALID,346,VALID,0.394942,
2001-06-02, 02:36:00,VALID,916.836,VALID,0,VALID,99.4814,VALID,-0.0169808,VALID,19.6297,VALID,301,VALID,0.473395,
2001-06-02, 02:37:00,VALID,916.822,VALID,0,VALID,99.4916,VALID,0,VALID,19.6066,VALID,317,VALID,0.153348,
2001-06-02, 02:38:00,VALID,916.784,VALID,0,VALID,99.5043,VALID,0,VALID,19.5907,VALID,324,VALID,0.725561,
2001-06-02, 02:39:00,VALID,916.788,VALID,0,VALID,99.4903,VALID,-0.0169808,VALID,19.5745,VALID,325,VALID,0.420928,
2001-06-02, 02:40:00,VALID,916.769,VALID,0,VALID,99.4916,VALID,0,VALID,19.5685,VALID,329,VALID,0.490848,
2001-06-02, 02:41:00,VALID,916.747,VALID,0,VALID,99.5005,VALID,0,VALID,19.5549,VALID,357,VALID,0.183699,
2001-06-02, 02:42:00,VALID,916.748,VALID,0,VALID,99.4954,VALID,-0.0169808,VALID,19.5554,VALID,7,VALID,0.399704,
2001-06-02, 02:43:00,VALID,916.738,VALID,0,VALID,99.4954,VALID,0,VALID,19.5454,VALID,16,VALID,0.86472,
2001-06-02, 02:44:00,VALID,916.737,VALID,0,VALID,99.4992,VALID,0,VALID,19.539,VALID,13,VALID,1.02778,
2001-06-02, 02:45:00,VALID,916.757,VALID,0,VALID,99.4954,VALID,-0.0169808,VALID,19.5464,VALID,10,VALID,0.994038,
2001-06-02, 02:46:00,VALID,916.763,VALID,0,VALID,99.4929,VALID,-0.0169808,VALID,19.5561,VALID,13,VALID,0.842061,
2001-06-02, 02:47:00,VALID,916.772,VALID,0,VALID,99.4967,VALID,-0.0339617,VALID,19.5397,VALID,16,VALID,0.735524,
2001-06-02, 02:48:00,VALID,916.767,VALID,0,VALID,99.5056,VALID,0,VALID,19.5464,VALID,9,VALID,0.913035,
2001-06-02, 02:49:00,VALID,916.767,VALID,0,VALID,99.5043,VALID,0,VALID,19.5325,VALID,9,VALID,0.589527,
2001-06-02, 02:50:00,VALID,916.752,VALID,0,VALID,99.5056,VALID,0.0169808,VALID,19.5529,VALID,327,VALID,0.805715,
2001-06-02, 02:51:00,VALID,916.761,VALID,0,VALID,99.5043,VALID,0,VALID,19.5589,VALID,325,VALID,0.790329,
2001-06-02, 02:52:00,VALID,916.745,VALID,0,VALID,99.5005,VALID,-0.0509425,VALID,19.5589,VALID,339,VALID,0.974107,
2001-06-02, 02:53:00,VALID,916.715,VALID,0,VALID,99.4903,VALID,-0.0169808,VALID,19.5651,VALID,8,VALID,0.896434,
2001-06-02, 02:54:00,VALID,916.708,VALID,0,VALID,99.5018,VALID,-0.0169808,VALID,19.5847,VALID,1,VALID,0.313447,
2001-06-02, 02:55:00,VALID,916.698,VALID,0,VALID,99.5107,VALID,0,VALID,19.5944,VALID,1,VALID,0.329464,
2001-06-02, 02:56:00,VALID,916.698,VALID,0,VALID,99.5107,VALID,0,VALID,19.6073,VALID,4,VALID,0.494088,
2001-06-02, 02:57:00,VALID,916.689,VALID,0,VALID,99.498,VALID,0,VALID,19.6041,VALID,3,VALID,0.126267,
2001-06-02, 02:58:00,VALID,916.678,VALID,0,VALID,99.5056,VALID,-0.0339617,VALID,19.6006,VALID,310,VALID,0.326275,
2001-06-02, 02:59:00,VALID,916.672,VALID,0,VALID,99.5069,VALID,0,VALID,19.581,VALID,310,VALID,0.244141,
2001-06-02, 03:00:00,VALID,916.669,VALID,0,VALID,99.5145,VALID,-0.0339617,VALID,19.6011,VALID,344,VALID,0.518709,
2001-06-02, 03:01:00,VALID,916.668,VALID,0,VALID,99.498,VALID,0,VALID,19.6041,VALID,329,VALID,0.563133,
2001-06-02, 03:02:00,VALID,916.65,VALID,0,VALID,99.5081,VALID,-0.0339617,VALID,19.6011,VALID,325,VALID,0.863741,
2001-06-02, 03:03:00,VALID,916.642,VALID,0,VALID,99.5018,VALID,0,VALID,19.5912,VALID,327,VALID,0.577097,
2001-06-02, 03:04:00,VALID,916.633,VALID,0,VALID,99.5056,VALID,0,VALID,19.5882,VALID,342,VALID,0.257601,
2001-06-02, 03:05:00,VALID,916.639,VALID,0,VALID,99.5043,VALID,-0.0679233,VALID,19.6078,VALID,299,VALID,0.104235,
2001-06-02, 03:06:00,VALID,916.638,VALID,0,VALID,99.5081,VALID,-0.0339617,VALID,19.6145,VALID,345,VALID,0.726563,
2001-06-02, 03:07:00,VALID,916.622,VALID,0,VALID,99.5094,VALID,-0.0339617,VALID,19.5914,VALID,7,VALID,1.30402,
2001-06-02, 03:08:00,VALID,916.636,VALID,0,VALID,99.5081,VALID,0,VALID,19.5976,VALID,19,VALID,0.826923,
2001-06-02, 03:09:00,VALID,916.628,VALID,0,VALID,99.5018,VALID,-0.0339617,VALID,19.6011,VALID,8,VALID,0.955966,
2001-06-02, 03:10:00,VALID,916.607,VALID,0,VALID,99.5081,VALID,0,VALID,19.5877,VALID,360,VALID,0.863393,
2001-06-02, 03:11:00,VALID,916.595,VALID,0,VALID,99.498,VALID,0.0679233,VALID,19.5609,VALID,2,VALID,0.962838,
2001-06-02, 03:12:00,VALID,916.576,VALID,0,VALID,99.5056,VALID,0.0509425,VALID,19.5514,VALID,6,VALID,0.765836,
2001-06-02, 03:13:00,VALID,916.565,VALID,0,VALID,99.5094,VALID,0.0509425,VALID,19.5477,VALID,358,VALID,1.0259,
2001-06-02, 03:14:00,VALID,916.557,VALID,0,VALID,99.5081,VALID,0.0849042,VALID,19.538,VALID,22,VALID,0.706814,
2001-06-02, 03:15:00,VALID,916.56,VALID,0,VALID,99.5005,VALID,0.101885,VALID,19.5445,VALID,347,VALID,0.846217,
2001-06-02, 03:16:00,VALID,916.566,VALID,0,VALID,99.5107,VALID,0.101885,VALID,19.538,VALID,349,VALID,0.652238,
2001-06-02, 03:17:00,VALID,916.562,VALID,0,VALID,99.512,VALID,0.0849042,VALID,19.5184,VALID,7,VALID,1.21921,
2001-06-02, 03:18:00,VALID,916.561,VALID,0,VALID,99.5018,VALID,0.0679233,VALID,19.5216,VALID,5,VALID,0.840461,
2001-06-02, 03:19:00,VALID,916.557,VALID,0,VALID,99.5056,VALID,0.0509425,VALID,19.5256,VALID,26,VALID,0.799831,
2001-06-02, 03:20:00,VALID,916.544,VALID,0,VALID,99.5132,VALID,0.0339617,VALID,19.5191,VALID,4,VALID,0.94264,
2001-06-02, 03:21:00,VALID,916.532,VALID,0,VALID,99.5107,VALID,0.0339617,VALID,19.5251,VALID,4,VALID,0.890203,
2001-06-02, 03:22:00,VALID,916.52,VALID,0,VALID,99.5132,VALID,0.0849042,VALID,19.5385,VALID,2,VALID,0.793527,
2001-06-02, 03:23:00,VALID,916.521,VALID,0,VALID,99.5069,VALID,0.0339617,VALID,19.5348,VALID,16,VALID,0.927284,
2001-06-02, 03:24:00,VALID,916.506,VALID,0,VALID,99.5145,VALID,0.0679233,VALID,19.5382,VALID,357,VALID,0.725616,
2001-06-02, 03:25:00,VALID,916.495,VALID,0,VALID,99.5132,VALID,-0.0339617,VALID,19.5425,VALID,343,VALID,0.900893,
2001-06-02, 03:26:00,VALID,916.49,VALID,0,VALID,99.5107,VALID,-0.0509425,VALID,19.5661,VALID,309,VALID,0.751267,
2001-06-02, 03:27:00,VALID,916.494,VALID,0,VALID,99.5056,VALID,-0.0679233,VALID,19.5757,VALID,353,VALID,0.586782,
2001-06-02, 03:28:00,VALID,916.475,VALID,0,VALID,99.5081,VALID,-0.0509425,VALID,19.5688,VALID,21,VALID,0.719572,
2001-06-02, 03:29:00,VALID,916.456,VALID,0,VALID,99.5094,VALID,-0.0339617,VALID,19.5745,VALID,315,VALID,0.567491,
2001-06-02, 03:30:00,VALID,916.448,VALID,0,VALID,99.5081,VALID,-0.0169808,VALID,19.6075,VALID,13,VALID,0.663035,
2001-06-02, 03:31:00,VALID,916.436,VALID,0,VALID,99.5145,VALID,-0.0509425,VALID,19.6041,VALID,5,VALID,0.62859,
2001-06-02, 03:32:00,VALID,916.428,VALID,0,VALID,99.5056,VALID,-0.0339617,VALID,19.6073,VALID,6,VALID,0.269531,
2001-06-02, 03:33:00,VALID,916.439,VALID,0,VALID,99.498,VALID,0,VALID,19.6036,VALID,360,VALID,0.699424,
2001-06-02, 03:34:00,VALID,916.448,VALID,0,VALID,99.5018,VALID,-0.0169808,VALID,19.6172,VALID,343,VALID,0.465794,
2001-06-02, 03:35:00,VALID,916.456,VALID,0,VALID,99.5005,VALID,0,VALID,19.6006,VALID,332,VALID,0.179276,